Location: Coed Ely
(51.5661°N, 3.4150°W)
Time: 23:28:37
(UTC+00:00)

H-2A R/B - Pass Details

Date: 28 January 2021
Orbit: 577 x 655 km, 98.5° (Epoch: 01 March)

Event Time Altitude Azimuth Distance (km) Brightness Sun altitude
Rises 17:23:49 0° 19° (NNE) 2,954 5.1 -4.7°
Reaches altitude 10° 17:26:08 10° 26° (NNE) 2,028 4.3 -5.0°
Maximum altitude 17:30:22 45° 99° (E) 857 2.4 -5.6°
Drops below altitude 10° 17:34:28 10° 173° (S) 1,965 4.8 -6.2°
Sets 17:36:41 0° 180° (S) 2,851 5.8 -6.5°
